Regional Weather Roundup
Issued by NWS

Home | Current Version | Previous Version | Graphics & Text | Print | Product List | Glossary On
Versions: 1 2 3 4 5 6 7 8 9 10 11 12 13 14 15 16 17 18 19 20 21 22 23 24 25 26 27 28 29 30 31 32 33 34 35 36 37 38 39 40 41 42 43 44 45 46 47 48 49 50
606
ASUS45 KPSR 261610
RWRAZ

ARIZONA HOURLY REGIONAL WEATHER ROUNDUP
NATIONAL WEATHER SERVICE PHOENIX AZ
900 AM MST THU MAY 26 2016

NOTE: FAIR INDICATES FEW OR NO CLOUDS BELOW 12,000 FEET WITH NO
SIGNIFICANT WEATHER AND/OR OBSTRUCTIONS TO VISIBILITY.

AZZ001>003-036-261700-
NORTHWEST ARIZONA

CITY           SKY/WX    TMP DP  RH WIND       PRES   REMARKS
BULLHEAD CITY  SUNNY     72  37  28 SW6       29.95S
KINGMAN        SUNNY     66  29  24 SW12      29.99S
$$

AZZ004>008-015-016-018-261700-
NORTH CENTRAL ARIZONA

CITY           SKY/WX    TMP DP  RH WIND       PRES   REMARKS
GRAND CANYON   MOSUNNY   55  27  34 VRB5      30.06S
WILLIAMS       SUNNY     52  25  35 CALM      30.14S
PRESCOTT       MOSUNNY   59  23  25 W7        30.04R
FLAGSTAFF      MOSUNNY   50  23  34 W10       30.07R
PAYSON         SUNNY     59  25  27 VRB7      30.07R
PAGE           PTSUNNY   66  28  24 SW8       29.92R
$$

AZZ009>014-017-261700-
NORTHEAST ARIZONA

CITY           SKY/WX    TMP DP  RH WIND       PRES   REMARKS
WINSLOW        PTSUNNY   60  25  26 NW10      30.01S
SAINT JOHNS    SUNNY     58  18  21 W17       30.02F
WINDOW ROCK    SUNNY     55  16  21 S12       30.04F
SHOW LOW       MOSUNNY   50  19  29 SW8G16    30.08S
$$

AZZ023-261700-
GREATER PHOENIX AREA

CITY           SKY/WX    TMP DP  RH WIND       PRES   REMARKS
PHOENIX        MOSUNNY   73  38  27 E6        29.94R
BUCKEYE        SUNNY     68  39  34 SW3       29.97S
GLENDALE       SUNNY     72  37  28 S8        29.96S
LUKE AFB       SUNNY     72  39  30 S8        29.93F
DEER VALLEY    SUNNY     69  37  30 CALM      29.95S
SCOTTSDALE     SUNNY     71  34  25 VRB3      29.97S
MESA-GATEWAY   MOSUNNY   70  37  30 SE5       29.96S
CHANDLER       SUNNY     72  37  28 SW6       29.96R
$$

AZZ027-028-261700-
SOUTHWEST MARICOPA COUNTY AND PINAL COUNTY

CITY           SKY/WX    TMP DP  RH WIND       PRES   REMARKS
CASA GRANDE    SUNNY     72  36  26 CALM      29.97S
GILA BEND      SUNNY     71  40  32 W5        29.95S
$$

AZZ503-504-507>509-261700-
SOUTHEAST ARIZONA

CITY           SKY/WX    TMP DP  RH WIND       PRES   REMARKS
TUCSON         SUNNY     69  27  20 VRB3      30.01S
DAVIS-MONTHAN  SUNNY     67  29  23 NE3       29.99F
RYAN FIELD     SUNNY     68  30  24 CALM      30.00F
NOGALES        SUNNY     65  27  23 VRB3      30.03S
SIERRA VISTA   SUNNY     63  23  21 VRB5      30.05F
DOUGLAS        SUNNY    N/A N/A N/A SW9       30.02F
SAFFORD        SUNNY     71  22  15 NW10G21   29.97F
$$

AZZ020-021-025-026-031-261700-
SOUTHWEST ARIZONA

CITY           SKY/WX    TMP DP  RH WIND       PRES   REMARKS
YUMA           SUNNY     72  46  39 W8        29.95R
$$

CAZ031-033-041-043-047-048-061-261700-
SOUTHERN CALIFORNIA

CITY           SKY/WX    TMP DP  RH WIND       PRES   REMARKS
DOWNTOWN L.A.  MOSUNNY   64  51  62 CALM      30.07S
L.A. AIRPORT   PTSUNNY   63  51  65 SE6       30.07F
SAN DIEGO      PTSUNNY   63  51  65 VRB3      30.10S
BURBANK        MOSUNNY   61  50  67 SE8       30.07S
ONTARIO        MOSUNNY   60  47  61 W3        30.07F
RIVERSIDE      PTSUNNY   62  47  57 E5        30.07F
PALM SPRINGS   SUNNY     72  41  32 W10       29.95F
EL CENTRO NAS  MOSUNNY   74  41  30 W10       29.96S
IMPERIAL       SUNNY     74  43  32 W7        29.93F
BLYTHE         SUNNY     73  43  33 S3        29.93S
NEEDLES        SUNNY     75  40  28 VRB3      29.92S
$$

NVZ020-UTZ003-261700-
SOUTHERN NEVADA-UTAH

CITY           SKY/WX    TMP DP  RH WIND       PRES   REMARKS
LAS VEGAS      MOSUNNY   70  35  27 CALM      29.91S
SALT LAKE CITY MOSUNNY   61  45  55 W5        30.01F
$$

NMZ009-TXZ055-261700-
NEW MEXICO-WEST TEXAS

CITY           SKY/WX    TMP DP  RH WIND       PRES   REMARKS
ALBUQUERQUE    MOSUNNY   65  20  17 VRB7      29.97F
EL PASO        SUNNY     76  31  19 W17G26    29.97F
$$


........................KEY........................
SKY/WX - SKY CONDITION/WEATHER
TMP    - TEMPERATURE IN FAHRENHEIT
DP     - DEW POINT IN FAHRENHEIT
RH     - RELATIVE HUMIDITY IN PERCENT
WIND   - DIRECTION AND SPEED IN MILES PER HOUR (MPH)
VRB    - VARIABLE WIND DIRECTION
PRES   - MEAN SEA LEVEL PRESSURE IN INCHES OF MERCURY
         F - FALLING PRESSURE   R - RISING PRESSURE
         S - STEADY PRESSURE
VSB    - VISIBILITY IN MILES
HX     - HEAT INDEX IN FAHRENHEIT
WCI    - WIND CHILL INDEX IN FAHRENHEIT
TC     - TEMPERATURE IN CELSIUS WHICH IS ALSO KNOWN AS
         TEMPERATURE IN CENTIGRADE
AFB    - AIR FORCE BASE
         LUKE AFB IS LUKE AIR FORCE BASE
         DAVIS-MONTHAN IS DAVIS-MONTHAN AIR FORCE BASE
NAS    - NAVAL AIR STATION
         EL CENTRO NAS IS EL CENTRO NAVAL AIR STATION
N/A    - NOT AVAILABLE





USA.gov is the U.S. government's official web portal to all federal, state and local government web resources and services.